World > North America > United States > North Carolina

West Jefferson, North Carolina Regional Weather

Lat: 36.40N, Lon: 81.5W
Wx Zone: NCZ001
Warning FLW WEATHER ALERT - FLASH FLOOD WATCH (More Info. Click Here) Warning
Feedback

West Jefferson, NC Regional Weather

Expires:201907231500;;510537
ASUS42 KRAH 231410
RWRRAH
NORTH CAROLINA WEATHER ROUNDUP
NATIONAL WEATHER SERVICE RALEIGH NC
1000 AM EDT TUE JUL 23 2019

NOTE: "FAIR" INDICATES FEW OR NO CLOUDS BELOW 12,000 FEET WITH NO
SIGNIFICANT WEATHER AND/OR OBSTRUCTIONS TO VISIBILITY.


NCZ001-053-055-056-065-067-231500-
WESTERN NORTH CAROLINA
  
CITY           SKY/WX    TMP DP  RH WIND       PRES   REMARKS
ASHEVILLE      CLOUDY    71  67  87 CALM      29.94F                  
JEFFERSON      RAIN      59  59 100 N7        30.00S                  
MORGANTON      LGT RAIN  66  64  93 CALM      29.94S                  
HICKORY        RAIN      71  70  96 CALM      29.90S FOG              
WILKESBORO     NOT AVBL                                               
RUTHERFORDTON  LGT RAIN  72  72 100 CALM      29.91F                  
MOUNT AIRY     RAIN      73  70  91 CALM      29.93F                  
BOONE          HVY RAIN  64  64 100 CALM      29.99S                  
$$
 

SKY/WX - Weather  TMP - Temperature  DP - Dew Point  RH - Relative Humidity
WIND - Wind Direction/Speed PRES - Barometric Pressure VSB - Visibility
WCI - Wind Chill Index E13G22 Wind - East Wind 13 mph/Gusts of 22 mph